Simultaneous Nadir Overpasses (SNOs) Predictions

Prediction of SNOs between NOAA-15 and METOP-C Satellite Orbit:

Table of predicted SNOs for the next 14.0 days since TLE Epoch: 7/4/2020
Index Date (NOAA-15) Time (NOAA-15) Lat,Lon (NOAA-15) SZA (NOAA-15 ) Date (METOP-C) Time (METOP-C) Lat,Lon (METOP-C) SZA (METOP-C ) Distance(km) Time Diff (sec)
1 07/06/2020 05:18:04 -80.93, -43.82 120.04 07/06/2020 05:16:54 -80.94, -43.84 120.07 0.56 70
2 07/06/2020 06:08:38 80.93, 123.49 59.96 07/06/2020 06:07:33 80.94, 123.61 59.95 2.32 65
3 07/06/2020 06:59:06 -80.94, -69.27 120.05 07/06/2020 06:58:15 -80.93, -69.33 120.08 1.74 51
4 07/06/2020 07:49:41 80.94, 98.03 59.96 07/06/2020 07:48:55 80.93, 98.12 59.94 1.79 46
5 07/06/2020 08:40:08 -80.93, -94.36 120.03 07/06/2020 08:39:36 -80.94, -94.46 120.05 1.85 32
6 07/06/2020 09:30:43 80.93, 72.95 59.98 07/06/2020 09:30:16 80.94, 72.99 59.98 1.25 27
7 07/06/2020 10:21:11 -80.94,-119.81 120.03 07/06/2020 10:20:58 -80.93,-119.95 120.06 2.71 13
8 07/06/2020 11:11:46 80.94, 47.50 59.97 07/06/2020 11:11:38 80.94, 47.50 59.96 0.80 8
9 07/06/2020 12:02:13 -80.93,-144.90 120.02 07/06/2020 12:02:19 -80.94,-145.08 120.03 3.24 6
10 07/06/2020 12:52:48 80.94, 22.41 59.99 07/06/2020 12:52:59 80.95, 22.37 60.00 1.41 11
11 07/06/2020 13:43:16 -80.94,-170.36 120.02 07/06/2020 13:43:40 -80.95,-170.21 119.99 2.67 24
12 07/06/2020 14:33:51 80.94, -3.04 59.99 07/06/2020 14:34:21 80.94, -3.12 59.99 1.52 30
13 07/06/2020 15:24:19 -80.95, 164.19 120.02 07/06/2020 15:25:02 -80.94, 164.30 120.00 2.03 43
14 07/06/2020 16:14:53 80.94, -28.13 60.00 07/06/2020 16:15:42 80.95, -28.25 60.02 2.58 49
15 07/06/2020 17:05:21 -80.94, 139.10 120.01 07/06/2020 17:06:23 -80.95, 139.17 119.97 1.57 62
